This is the latest recevied weather packets stored in our database for station/object OK1FET-4. If no packets are shown the sender has not sent any weather packets the latest 10 day(s).
| Time | Temp. | Humidity | Pressure | Rain* | Wind** | Luminosity | Snow |
|---|---|---|---|---|---|---|---|
| 1788517957 | 25.56° C | 55% | 1016.1 hPa | - | - | - | - |
| 1788517656 | 25.56° C | 56% | 1016.4 hPa | - | - | - | - |
| 1788517354 | 25° C | 58% | 1016.3 hPa | - | - | - | - |
| 1788517053 | 24.44° C | 59% | 1016.1 hPa | - | - | - | - |
| 1788516752 | 25° C | 57% | 1016.4 hPa | - | - | - | - |
| 1788516451 | 25° C | 57% | 1016.6 hPa | - | - | - | - |
| 1788516149 | 25° C | 58% | 1016.6 hPa | - | - | - | - |
| 1788515848 | 25° C | 58% | 1016.6 hPa | - | - | - | - |
| 1788515547 | 24.44° C | 59% | 1016.9 hPa | - | - | - | - |
| 1788515245 | 24.44° C | 59% | 1016.9 hPa | - | - | - | - |
| 1788514944 | 24.44° C | 59% | 1017 hPa | - | - | - | - |
| 1788514643 | 24.44° C | 59% | 1017 hPa | - | - | - | - |
| 1788514341 | 24.44° C | 60% | 1017.1 hPa | - | - | - | - |
| 1788514040 | 23.89° C | 61% | 1017.1 hPa | - | - | - | - |
| 1788513739 | 23.33° C | 61% | 1017.2 hPa | - | - | - | - |
| 1788513437 | 23.89° C | 60% | 1017.2 hPa | - | - | - | - |
| 1788513136 | 23.89° C | 61% | 1017.2 hPa | - | - | - | - |
| 1788512835 | 23.89° C | 61% | 1017.5 hPa | - | - | - | - |
| 1788512534 | 23.89° C | 61% | 1017.4 hPa | - | - | - | - |
| 1788512232 | 23.89° C | 61% | 1017.7 hPa | - | - | - | - |
| 1788511931 | 23.89° C | 61% | 1017.5 hPa | - | - | - | - |
| 1788511630 | 23.33° C | 62% | 1017.8 hPa | - | - | - | - |
| 1788511329 | 22.78° C | 63% | 1017.9 hPa | - | - | - | - |
| 1788511027 | 22.78° C | 64% | 1017.8 hPa | - | - | - | - |
| 1788510726 | 22.22° C | 65% | 1017.9 hPa | - | - | - | - |
* Rain since midnight (hover to see other rain measurements)
** Current wind speed in m/s (hover to see current wind gust speed)